Weather reports worldwide

Advertisment
Cap Corse, France (7785): temperature & dewpoint: 12.01.2018 06:00:00 - 18.01.2018 06:00:00 (CET)Cap Corse, France (7785): wind speed & gusts: 12.01.2018 06:00:00 - 18.01.2018 06:00:00 (CET)Cap Corse, France (7785): wind direction: 12.01.2018 06:00:00 - 18.01.2018 06:00:00 (CET)Cap Corse, France (7785): reduced air pressure: 12.01.2018 06:00:00 - 18.01.2018 06:00:00 (CET)Cap Corse, France (7785): visibility: 12.01.2018 06:00:00 - 18.01.2018 06:00:00 (CET)Cap Corse, France (7785): precipitation: 12.01.2018 06:00:00 - 18.01.2018 06:00:00 (CET)
Date & Time tt [°C] td [°C] ff [km/h] ff [kn] fx [km/h] fx [kn] dd ppp [hPa] vv [km] rr [mm]
18.01.2018 06:00:00 10,5 1,3 73 39 119 65 WSW 1016,4 - 0,0
18.01.2018 05:00:00 10,6 0,6 54 29 111 60 WSW 1017,0 - 0,0
18.01.2018 04:00:00 10,7 0,1 55 30 104 56 W 1017,2 20 0,0
18.01.2018 03:00:00 10,7 0,4 43 23 76 41 WSW 1018,6 - 0,0
18.01.2018 02:00:00 10,9 1,7 34 19 76 41 W 1018,3 - 0,0
18.01.2018 01:00:00 9,0 -3,2 25 13 35 19 SW 1018,7 - 0,0
18.01.2018 00:00:00 9,3 -3,0 13 7 23 12 WNW 1018,9 - 0,0
17.01.2018 23:00:00 11,0 -3,2 18 10 34 18 WNW 1018,0 - 0,0
17.01.2018 22:00:00 11,6 -4,6 25 13 37 20 NW 1017,4 - 0,0
17.01.2018 21:00:00 11,8 -4,4 29 16 43 23 NNW 1016,3 - 0,0
17.01.2018 20:00:00 12,3 -4,4 31 17 46 25 NNW 1015,4 - 0,0
17.01.2018 19:00:00 12,5 -2,2 31 17 53 28 NNW 1014,0 - 0,0
17.01.2018 18:00:00 12,9 -3,4 35 19 51 27 NW 1012,9 - 0,0
17.01.2018 17:00:00 13,2 -1,2 26 14 38 21 WNW 1011,4 - 0,0
17.01.2018 16:00:00 14,6 6,2 23 12 48 26 W 1010,1 - 0,0
17.01.2018 15:00:00 14,9 3,1 37 20 88 47 W 1008,3 - 0,0
17.01.2018 14:00:00 13,8 5,2 71 38 117 63 W 1006,7 - 0,0
17.01.2018 13:00:00 13,4 4,3 98 53 124 67 W 1005,4 - 0,0
17.01.2018 12:00:00 12,8 4,7 93 50 124 67 W 1005,0 - 0,0
17.01.2018 11:00:00 12,5 4,0 96 52 131 71 W 1004,7 - 0,0
17.01.2018 10:00:00 13,3 5,4 93 50 130 70 W 1004,1 12 0,0
17.01.2018 09:00:00 13,4 7,2 102 55 155 84 W 1001,9 - 0,0
17.01.2018 08:00:00 13,8 7,3 121 65 - - W 999,7 - 0,0
17.01.2018 07:00:00 13,9 8,9 114 62 - - W 997,1 - 0,0
17.01.2018 06:00:00 13,9 9,7 100 54 - - W 999,9 - 0,0
17.01.2018 05:00:00 14,0 9,6 117 63 - - W 1000,5 - 0,0
17.01.2018 04:00:00 14,2 9,4 121 66 - - W 1000,2 12 0,0
17.01.2018 03:00:00 14,1 9,1 112 61 - - W 1000,5 - 0,0
17.01.2018 02:00:00 14,0 9,4 131 71 - - W 1000,0 - 0,0
17.01.2018 01:00:00 14,3 8,9 112 61 - - W 1000,9 - 0,0
17.01.2018 00:00:00 14,2 9,0 114 62 - - W 1001,7 - 0,0
16.01.2018 23:00:00 14,2 9,0 116 63 - - W 1002,1 - 0,2
16.01.2018 22:00:00 14,0 9,4 - - - - - 1004,1 - 0,0
16.01.2018 21:00:00 14,1 9,5 94 51 171 92 W 1005,1 - 0,0
16.01.2018 20:00:00 14,3 9,1 94 51 170 92 WSW 1005,8 - 0,0
16.01.2018 19:00:00 14,1 8,5 91 49 166 89 W 1006,7 12 0,0
16.01.2018 18:00:00 13,8 9,2 91 49 - - WSW 1006,9 - 0,0
16.01.2018 17:00:00 14,0 8,4 - - - - - 1006,4 - -
16.01.2018 16:00:00 - - - - - - - - - -
16.01.2018 15:00:00 - - - - - - - - - -
16.01.2018 14:00:00 - - - - - - - - - -
16.01.2018 13:00:00 14,0 8,4 106 57 171 92 W 1007,3 - 0,0
16.01.2018 12:00:00 13,4 8,7 100 54 184 99 W 1009,3 - 0,0
16.01.2018 11:00:00 13,3 8,4 97 53 158 86 W 1011,0 - 0,0
16.01.2018 10:00:00 13,1 9,2 85 46 168 91 W 1011,2 - 0,0
16.01.2018 09:00:00 12,7 8,0 89 48 156 84 W 1010,8 - 0,0
16.01.2018 08:00:00 12,3 7,4 83 45 158 85 W 1010,7 - 0,0
16.01.2018 07:00:00 12,2 7,1 84 46 165 89 WSW 1011,9 - 0,0
16.01.2018 06:00:00 12,1 6,6 85 46 154 83 W 1012,2 - 0,0
16.01.2018 05:00:00 12,2 7,1 84 45 138 75 W 1013,2 - 0,0
16.01.2018 04:00:00 11,8 7,1 89 48 145 78 W 1013,7 15 0,0
16.01.2018 03:00:00 12,1 8,0 94 51 144 78 W 1014,8 - 0,0
16.01.2018 02:00:00 11,7 7,2 67 36 125 68 W 1016,4 - 0,0
16.01.2018 01:00:00 11,9 7,0 75 40 116 62 W 1016,9 - 0,0
16.01.2018 00:00:00 11,7 6,8 65 35 107 58 W 1018,3 - 0,0
15.01.2018 23:00:00 11,9 7,0 59 32 99 54 W 1018,6 - 0,0
15.01.2018 22:00:00 11,7 6,8 51 28 89 48 W 1019,2 - 0,0
15.01.2018 21:00:00 11,5 6,4 44 24 70 38 W 1019,5 - 0,0
15.01.2018 20:00:00 11,9 6,6 26 14 67 36 W 1019,8 - 0,0
15.01.2018 19:00:00 11,9 6,8 37 20 62 33 W 1019,6 - 0,0
15.01.2018 18:00:00 11,7 6,8 32 17 47 26 W 1020,2 - 0,0
15.01.2018 17:00:00 11,5 6,8 28 15 42 23 W 1020,8 - 0,0
15.01.2018 16:00:00 11,6 6,9 27 15 38 20 W 1020,8 18 0,0
15.01.2018 15:00:00 11,9 6,0 11 6 24 13 WSW 1021,0 - 0,0
15.01.2018 14:00:00 12,0 5,6 8 5 12 6 W 1021,3 - 0,0
15.01.2018 13:00:00 12,6 5,5 5 3 9 5 NW 1022,0 15 0,0
15.01.2018 12:00:00 12,8 5,2 4 2 10 5 WNW 1022,6 - 0,0
15.01.2018 11:00:00 11,9 4,4 8 4 13 7 WSW 1023,3 - 0,0
15.01.2018 10:00:00 12,1 4,6 6 4 17 9 ESE 1022,9 15 0,0
15.01.2018 09:00:00 9,1 3,5 2 1 9 5 S 1022,5 - 0,0
15.01.2018 08:00:00 8,0 2,4 6 3 31 17 W 1022,2 - 0,0
15.01.2018 07:00:00 8,8 3,0 18 10 34 19 SSE 1021,4 15 0,0
15.01.2018 06:00:00 7,7 3,0 4 2 24 13 NNW 1021,5 - 0,0
15.01.2018 05:00:00 8,0 3,1 3 2 26 14 E 1021,6 - 0,0
15.01.2018 04:00:00 8,7 3,5 15 8 36 20 ESE 1021,7 15 0,0
15.01.2018 03:00:00 9,2 4,2 23 12 35 19 SE 1021,9 - 0,0
15.01.2018 02:00:00 9,2 4,8 21 12 30 16 SE 1021,9 - 0,0
15.01.2018 01:00:00 8,8 4,6 18 10 28 15 SE 1022,0 - 0,0
15.01.2018 00:00:00 8,7 3,9 21 11 27 15 SE 1022,2 - 0,0
14.01.2018 23:00:00 8,9 3,7 22 12 29 15 SE 1022,1 - 0,0
14.01.2018 22:00:00 8,8 3,6 22 12 31 17 SE 1022,0 - 0,0
14.01.2018 21:00:00 8,8 3,2 22 12 29 16 SE 1021,6 - 0,0
14.01.2018 20:00:00 8,7 2,7 21 11 31 17 SE 1021,3 - 0,0
14.01.2018 19:00:00 8,7 2,7 22 12 31 17 SE 1020,7 - 0,0
14.01.2018 18:00:00 8,8 2,4 22 12 34 19 SE 1020,3 - 0,0
14.01.2018 17:00:00 9,7 2,8 21 11 39 21 ESE 1020,0 - 0,0
14.01.2018 16:00:00 10,8 3,1 27 14 42 23 ESE 1019,6 20 0,0
14.01.2018 15:00:00 11,4 3,7 18 10 38 21 ESE 1019,5 - 0,0
14.01.2018 14:00:00 11,5 3,0 22 12 35 19 SE 1019,4 - 0,0
14.01.2018 13:00:00 11,4 3,2 19 11 34 18 E 1019,5 20 0,0
14.01.2018 12:00:00 11,3 3,1 16 9 30 16 E 1020,2 - 0,0
14.01.2018 11:00:00 10,7 3,9 18 10 29 16 ESE 1020,5 - 0,0
14.01.2018 10:00:00 10,0 3,3 19 10 32 17 ESE 1020,2 20 0,0
14.01.2018 09:00:00 9,4 2,7 22 12 34 19 ESE 1019,8 - 0,0
14.01.2018 08:00:00 9,0 2,1 24 13 36 20 ESE 1019,6 - 0,0
14.01.2018 07:00:00 9,2 1,8 23 12 40 21 ESE 1019,4 20 0,0
14.01.2018 06:00:00 9,1 1,3 24 13 37 20 ESE 1019,3 - 0,0
14.01.2018 05:00:00 8,9 1,5 27 15 39 21 ESE 1019,4 - 0,0
14.01.2018 04:00:00 8,8 1,7 24 13 38 20 ESE 1019,6 20 0,0
14.01.2018 03:00:00 8,9 1,5 22 12 32 17 SE 1020,2 - 0,0
14.01.2018 02:00:00 8,8 1,7 22 12 36 19 ESE 1020,1 - 0,0
14.01.2018 01:00:00 8,9 2,0 22 12 34 18 ESE 1020,2 - 0,0
14.01.2018 00:00:00 9,2 1,8 22 12 37 20 SE 1020,9 - 0,0
13.01.2018 23:00:00 9,0 2,3 23 12 32 17 SE 1020,9 - 0,0
13.01.2018 22:00:00 9,1 3,3 23 12 30 16 SE 1020,7 - 0,0
13.01.2018 21:00:00 8,9 2,9 22 12 29 15 SE 1020,9 - 0,0
13.01.2018 20:00:00 7,8 2,0 10 5 18 10 SSE 1020,9 - 0,0
13.01.2018 19:00:00 8,0 2,0 3 2 19 10 WSW 1020,8 - 0,0
13.01.2018 18:00:00 7,9 2,8 10 5 14 7 SSE 1020,6 - 0,0
13.01.2018 17:00:00 8,3 2,9 7 4 10 5 SE 1020,6 - 0,0
13.01.2018 16:00:00 10,8 3,3 3 2 11 6 E 1020,6 20 0,0
13.01.2018 15:00:00 12,0 3,7 6 3 17 9 ENE 1020,5 - 0,0
13.01.2018 14:00:00 12,4 3,9 11 6 16 9 ENE 1020,4 - 0,0
13.01.2018 13:00:00 12,8 4,0 9 5 14 8 E 1020,9 20 0,0
13.01.2018 12:00:00 12,0 3,7 8 5 23 12 E 1021,6 - 0,0
13.01.2018 11:00:00 12,2 4,2 13 7 24 13 E 1021,7 - 0,0
13.01.2018 10:00:00 11,0 4,2 16 9 29 16 ESE 1021,6 20 0,0
13.01.2018 09:00:00 10,0 4,4 19 10 28 15 ESE 1021,3 - 0,0
13.01.2018 08:00:00 9,8 3,7 15 8 21 11 E 1021,1 - 0,0
13.01.2018 07:00:00 9,0 3,6 13 7 23 12 E 1020,8 - 0,0
13.01.2018 06:00:00 9,0 3,2 15 8 28 15 E 1020,6 - 0,0
13.01.2018 05:00:00 9,4 2,9 17 9 37 20 E 1020,7 - 0,0
13.01.2018 04:00:00 10,6 2,9 27 14 51 28 E 1020,8 18 0,0
13.01.2018 03:00:00 10,7 1,5 34 19 49 27 E 1020,9 - 0,0
13.01.2018 02:00:00 10,6 2,2 35 19 58 32 E 1020,8 - 0,0
13.01.2018 01:00:00 10,6 1,7 35 19 58 31 E 1020,7 - 0,0
13.01.2018 00:00:00 10,8 2,1 39 21 58 31 E 1020,6 - 0,0
12.01.2018 23:00:00 10,7 3,0 41 22 56 30 E 1020,5 - 0,0
12.01.2018 22:00:00 10,4 2,7 29 16 52 28 E 1020,3 - 0,0
12.01.2018 21:00:00 10,6 2,9 32 18 53 29 E 1019,9 - 0,0
12.01.2018 20:00:00 10,7 3,0 34 19 51 28 E 1019,5 - 0,0
12.01.2018 19:00:00 11,1 3,1 33 18 48 26 E 1018,9 - 0,0
12.01.2018 18:00:00 11,2 3,5 31 17 50 27 E 1018,5 - 0,0
12.01.2018 17:00:00 11,7 3,9 29 16 45 24 E 1017,9 - 0,0
12.01.2018 16:00:00 11,8 3,8 30 16 44 24 E 1017,5 20 0,0
12.01.2018 15:00:00 11,7 3,9 27 15 48 26 E 1016,9 - 0,0
12.01.2018 14:00:00 12,0 4,0 31 17 50 27 E 1016,4 - 0,0
12.01.2018 13:00:00 11,5 3,8 35 19 55 30 E 1016,5 20 0,0
12.01.2018 12:00:00 11,3 3,6 40 22 59 32 E 1016,7 - 0,0
12.01.2018 11:00:00 11,4 3,9 37 20 66 36 E 1017,0 - 0,0
12.01.2018 10:00:00 11,6 2,6 47 25 71 39 E 1016,2 15 0,0
12.01.2018 09:00:00 11,6 2,9 48 26 77 42 E 1015,3 - 0,0
12.01.2018 08:00:00 11,7 2,9 50 27 73 39 E 1014,8 - 0,0
12.01.2018 07:00:00 11,5 4,2 55 30 76 41 E 1014,0 15 0,0
12.01.2018 06:00:00 11,4 4,8 44 24 61 33 E 1013,5 - 0,0

tt = temperature
td = dewpoint
ff = wind speed
fx = gusts
dd = wind direction
ppp = reduced air pressure
vv = visibility
rr = precipitation

Next stations